ONEWEB-0263 (48981 NORAD) Tracking and Keplerian Element Data

This shows tracking and keplerian element data for the satellite.

Feedback or suggestion? Click here.




ElementValue
Catalog48981
NameONEWEB-0263
Epoch Orbit567
Epoch Day211.25001157
Epoch Year2021
RAAN227.4324
Inclination87.4569
Eccentricity0.0009937
Argument of Perigee141.2958
Mean Anonmoly189.6721
Mean Motion14.95975561
Decay Rate-0.01151383
L11 48981U 21060Q 21211.25001157 -.01151383 00000-0 -11186+0 0 9997
L22 48981 87.4569 227.4324 0009937 141.2958 189.6721 14.95975561 5677

Live tracking and technical data element details for ONEWEB-0263 (NORAD 48981). ONEWEB-0263 can be tracked NOW for your location showing map with azimuth and elevation plus other details from your city location.

Track the satellite on the map from your city or location and see movement details for azimuth, elevation, latitude, longitude, range, height, and movement on the map or in text.







IsCatalogInMostPopularTable: catalog: 48981, numindb: 6
Update: records affected: 1



GetName: 48981 ONEWEB-0263

Hit Count: updated at: Sat, 31 Jul 2021 15:20:01 GMT